• Join FlightAware (Why Join?)
  • Login
  • US Flag 
05:14AM EST


 

Airport Tracker/Info


-or-


 

Live Flight TrackerFlight Track Log ✈ AAL2179 ✈ 18-May-2014 ✈ KLGA - KDCA

Flight Track Log - Related Links

Times and Time Zones

All times are in EDT time to prevent confusion due to time zone crossing. See the AAL2179 flight status page for this flight to view local times or setup timezone preferences in your user account.

Time Position Orientation Groundspeed Altitude Reporting Facility
EDT Latitude Longitude Course Direction KTS MPH feet Rate Location/Type
12:11PM 40.8167 -73.9167 205° Southwest 161 185 2,100  Level New York TRACON
12:12PM 40.8667 -73.9500 333° Northwest 215 247 5,100 3,000 Climbing New York TRACON
12:13PM 40.8500 -74.0500 258° West 248 285 8,400 3,240 Climbing New York TRACON
12:14PM 40.6402 -74.2561 244° Southwest  Level FlightAware Approximate
12:14PM 40.8333 -74.1500 258° West 268 308 11,900  Level New York TRACON
12:15PM 40.6045 -74.3543 244° Southwest  Level FlightAware Approximate
12:15PM 40.8000 -74.2500 246° West 328 377 13,800  Level New York TRACON
12:16PM 40.5710 -74.4537 246° West  Level FlightAware Approximate
12:17PM 40.4914 -74.5018 205° Southwest  Level FlightAware Approximate
12:17PM 40.7075 -74.4119 233° Southwest 346 398 16,900  Level New York Center
12:18PM 40.6519 -74.5239 237° Southwest 340 391 17,000 240 Climbing New York Center
12:19PM 40.6008 -74.6278 237° Southwest 340 391 17,500 1,260 Climbing New York Center
12:20PM 40.5519 -74.7178 234° Southwest 345 397 19,700 2,160 Climbing New York Center
12:21PM 40.4961 -74.8239 235° Southwest 345 397 21,900 1,140 Climbing New York Center
12:22PM 40.4425 -74.9297 236° Southwest 350 403 22,000  Climbing New York Center
12:23PM 40.3806 -75.0294 231° Southwest 358 412 22,000  Level New York Center
12:24PM 40.3125 -75.1261 227° Southwest 358 412 22,000  Level New York Center
12:25PM 40.2442 -75.2222 227° Southwest 364 419 22,000  Level New York Center
12:26PM 40.1761 -75.3158 226° Southwest 364 419 22,000  Level New York Center
12:27PM 40.1097 -75.4119 228° Southwest 364 419 22,000  Level New York Center
12:28PM 40.0436 -75.5050 227° Southwest 359 413 22,000  Level New York Center
12:29PM 39.9753 -75.5953 225° Southwest 359 413 22,000 -60 Level New York Center
12:30PM 39.9108 -75.6936 230° Southwest 359 413 21,900 -600 Descending New York Center
12:31PM 39.8522 -75.7978 234° Southwest 359 413 20,900 -1,020 Descending New York Center
12:32PM 39.7936 -75.8989 233° Southwest 359 413 19,900 -1,140 Descending New York Center
12:33PM 39.7267 -75.9992 229° Southwest 344 396 18,700 -1,380 Descending New York Center
12:34PM 39.6642 -76.0919 229° Southwest 337 388 17,200 -1,620 Descending New York Center
12:35PM 39.6144 -76.1706 231° Southwest 340 391 15,500 -1,800 Descending Washington Center
12:36PM 39.5558 -76.2606 230° Southwest 330 380 13,700 -1,740 Descending Washington Center
12:37PM 39.4861 -76.3672 230° Southwest 326 375 12,000 -840 Descending Washington Center
12:38PM 39.4219 -76.4483 224° Southwest 324 373 12,000 -60 Level Washington Center
12:39PM 39.3500 -76.5000 209° Southwest 330 380 11,900 -540 Descending Potomac TRACON
12:40PM 39.2667 -76.5667 212° Southwest 328 377 11,100 -840 Descending Potomac TRACON
12:41PM 39.2000 -76.6333 218° Southwest 325 374 10,300 -600 Descending Potomac TRACON
12:42PM 39.1167 -76.7167 218° Southwest 317 365 10,000 -180 Descending Potomac TRACON
12:43PM 39.0667 -76.8000 232° Southwest 316 364 10,000 -540 Level Potomac TRACON
12:44PM 39.0000 -76.8667 218° Southwest 271 312 9,000 -1,260 Descending Potomac TRACON
12:45PM 38.9500 -76.9167 218° Southwest 263 303 7,600 -1,620 Descending Potomac TRACON
12:46PM 38.8833 -76.9500 201° Southwest 280 322 6,000 -1,620 Descending Potomac TRACON
12:47PM 38.8167 -76.9500 180° South 274 315 4,400 -960 Descending Potomac TRACON
12:48PM 38.7500 -76.9500 180° South 220 253 4,100 -240 Descending Potomac TRACON
12:49PM 38.7000 -76.9333 165° South 205 236 4,000 -360 Descending Potomac TRACON
12:50PM 38.6500 -76.9500 195° South 201 231 3,500 -540 Descending Potomac TRACON
12:51PM 38.6500 -77.0000 270° West 177 204 3,000 -360 Descending Potomac TRACON
12:52PM 38.7000 -77.0167 345° North 169 194 2,800 -480 Descending Potomac TRACON
12:53PM 38.7333 -77.0333 339° North 162 186 2,100 -840 Descending Potomac TRACON
12:54PM 38.7833 -77.0333 360° North 149 171 1,200 -840 Descending Potomac TRACON
12:55PM 38.8167 -77.0333 360° North 121 139 500 -720 Descending Potomac TRACON